This demonstration page uses our WeatherBlox Daily Observations layout. Learn more.

39.92423, -83.80882

Hourly Observations for September 11, 2016

Temp ( °F °C ) Dew Point ( °F °C ) Humidity (%) Winds ( mph kmh ) Pressure ( in mb ) Visibility ( mi km ) Precip ( " mm )
12:56 am 00:56 Clear 60 15.6 59 15 96 96 W 6 9 30.06 1018 10 16.0934 0 0
1:56 am 01:56 Clear 58 14.4 57 13.9 97 97 W 6 9 30.07 1018 10 16.0934 0 0
2:56 am 02:56 Clear 58 14.4 57 13.9 97 97 W 6 9 30.07 1018 10 16.0934 0 0
3:56 am 03:56 Clear 59 15 57 13.9 93 93 W 8 13 30.08 1019 10 16.0934 0 0
4:56 am 04:56 Clear 58 14.4 56 13.3 93 93 WNW 7 11 30.1 1019 10 16.0934 0 0
5:56 am 05:56 Clear 57 13.9 55 12.8 93 93 NW 7 11 30.13 1020 10 16.0934 0 0
6:56 am 06:56 Clear 55 12.8 54 12.2 96 96 Calm 30.16 1021 10 16.0934 0 0
7:56 am 07:56 Sunny 56 13.3 56 13.3 100 100 NW 3 6 30.18 1022 10 16.0934 0 0
8:56 am 08:56 Sunny 60 15.6 57 13.9 90 90 N 7 11 30.19 1022 10 16.0934 0 0
9:56 am 09:56 Sunny 63 17.2 57 13.9 81 81 N 8 13 30.21 1023 10 16.0934 0 0
10:56 am 10:56 Sunny 66 18.9 56 13.3 70 70 N 10 17 30.22 1023 10 16.0934 0 0
11:56 am 11:56 Sunny 69 20.6 56 13.3 63 63 VRB 7 11 30.22 1024 10 16.0934 0 0
12:25 pm 12:25 Mostly Sunny 70 21 54 12 57 57 NNW 7 11 30.21 1023 10 16.0934 0 0
12:56 pm 12:56 Sunny 70 21.1 54 12.2 57 57 N 5 7 30.21 1023 10 16.0934 0 0
1:56 pm 13:56 Sunny 72 22.2 54 12.2 53 53 N 6 9 30.2 1023 10 16.0934 0 0
2:56 pm 14:56 Mostly Cloudy 73 22.8 52 11.1 48 48 NW 5 7 30.19 1022 10 16.0934 0 0
3:56 pm 15:56 Sunny 74 23.3 53 11.7 48 48 W 6 9 30.18 1022 10 16.0934 0 0
4:32 pm 16:32 Partly Cloudy 73 23 52 11 47 47 NNW 5 7 30.15 1021 10 16.0934 0 0
4:56 pm 16:56 Mostly Sunny 71 21.7 51 10.6 49 49 Calm 30.17 1022 10 16.0934 0 0
5:29 pm 17:29 Mostly Sunny 73 23 52 11 47 47 ENE 3 6 30.15 1021 10 16.0934 0 0
5:56 pm 17:56 Mostly Sunny 73 22.8 51 10.6 46 46 Calm 30.16 1022 10 16.0934 0 0
6:56 pm 18:56 Sunny 72 22.2 52 11.1 50 50 NW 3 6 30.16 1021 10 16.0934 0 0
7:56 pm 19:56 Clear 68 20 55 12.8 63 63 Calm 30.17 1022 10 16.0934 0 0
8:56 pm 20:56 Clear 63 17.2 53 11.7 70 70 Calm 30.17 1022 10 16.0934 0 0
9:56 pm 21:56 Clear 61 16.1 55 12.8 81 81 Calm 30.18 1022 10 16.0934 0 0
10:56 pm 22:56 Clear 59 15 54 12.2 83 83 ENE 3 6 30.19 1022 10 16.0934 0 0
11:56 pm 23:56 Clear 57 13.9 54 12.2 90 90 ENE 3 6 30.19 1022 10 16.0934 0 0

Powered by AerisWeather